Regional Weather Roundup
Issued by NWS

Home | Current Version | Previous Version | Text Only | Print | Product List | Glossary On
Versions: 1 2 3 4 5 6 7 8 9 10 11 12 13 14 15 16 17 18 19 20 21 22 23 24 25 26 27 28 29 30 31 32 33 34 35 36 37 38 39 40 41 42 43 44 45 46 47 48 49 50
000
ASUS45 KBOU 280607
RWRCO

WEATHER ROUNDUP FOR COLORADO
NATIONAL WEATHER SERVICE DENVER/BOULDER CO
1100 PM MST TUE JAN 27 2015

NOTE: "FAIR" INDICATES FEW OR NO CLOUDS BELOW 12000 FEET WITH NO
SIGNIFICANT WEATHER AND/OR OBSTRUCTIONS TO VISIBILITY.

COZ001>005-013-030-031-280700-
...NORTHWEST COLORADO...

CITY           SKY/WX    TMP DP  RH WIND       PRES   REMARKS
CRAIG          CLOUDY    35  31  85 NE3       30.23S
HAYDEN         CLOUDY    39  27  60 N3        30.23R
MEEKER         CLOUDY    37  31  78 SE3       30.23S
MOUNT WERNER   NOT AVBL
STEAMBOAT SPGS CLOUDY    34  26  72 E3        30.23S
WALDEN         PTCLDY    32  23  69 SE7       30.22S WCI  26
$$

COZ006>008-011-280700-
...WEST CENTRAL VALLEYS...

CITY           SKY/WX    TMP DP  RH WIND       PRES   REMARKS
GRAND JUNCTION CLEAR     32  27  81 E6        30.24S WCI  26
MONTROSE       PTCLDY    33  24  69 CALM      30.29R
EAGLE          PTCLDY    30  27  86 E9        30.27S WCI  22
RIFLE          MOCLDY    35  28  75 SE3       30.25S
DELTA          MOCLDY    35  27  73 CALM      30.28S
NUCLA          PTCLDY    36  30  80 E10       30.32R
$$

COZ017>023-064>068-280700-
...SOUTHWEST COLORADO...

CITY           SKY/WX    TMP DP  RH WIND       PRES   REMARKS
DURANGO        CLOUDY    33  28  81 E3        30.28F
CORTEZ         CLOUDY    38  32  79 E7        30.29S
PAGOSA SPRINGS PTCLDY    30  28  93 CALM      30.31F
TELLURIDE      CLOUDY    35  26  70 CALM      30.37
WOLF CREEK PAS NOT AVBL
$$

COZ009-010-012-014-032>034-037-058>063-280700-
...CENTRAL COLORADO...

CITY           SKY/WX    TMP DP  RH WIND       PRES   REMARKS
ASPEN          MOCLDY    31  21  66 S5        30.27S WCI  26
BUENA VISTA    PTCLDY    28  21  75 NE5       30.24R WCI  23
COPPER MTN     PTCLDY    28  18  64 W26       30.33S WCI  13
BERTHOUD PASS  FAIR      18  12  79 N13G24    30.31F WCI   4
COTTONWOOD PAS PTCLDY    37  19  48 W12G26    30.28R
GUNNISON       PTCLDY     9   0  66 CALM      30.36S
KREMMLING      MOCLDY    19  16  86 CALM      30.28F
LEADVILLE      PTCLDY    29  17  61 N15       30.28R WCI  18
MONARCH PASS   MOCLDY    21  19  93 W44       30.41F WCI   0
SALIDA         PTCLDY    44  24  43 SW16G25   30.30R
SUNLIGHT       CLOUDY    32  28  86 CALM      30.31R
WILKERSON PASS PTCLDY    30  14  51 SW16G24   30.27F WCI  19
$$

COZ069>075-280700-
...SAN LUIS VALLEY/SANGRE DE CRISTO MOUNTAINS...

CITY           SKY/WX    TMP DP  RH WIND       PRES   REMARKS
ALAMOSA        PTCLDY    19  14  81 SW6       30.27R WCI  11
LA VETA PASS   NOT AVBL
SAGUACHE       PTCLDY    30  23  74 NW13      30.29R WCI  20
$$

COZ035-036-038>040-280700-
...NORTHERN COLORADO FRONT RANGE...

CITY           SKY/WX    TMP DP  RH WIND       PRES   REMARKS
DENVER INTL AP PTCLDY    43  27  53 SW9       30.01S
DMNS CITY PARK   N/A     48  20  32 S3        30.01R
AURORA         PTCLDY    46  26  46 S9        30.02F
FRONT RANGE AP NOT AVBL
ERIE MUNI ARPT PTCLDY    42  23  46 SW6       30.00S
BOULDER MUN AP PTCLDY    55  23  28 W17G23    30.00R
CENTENNIAL     PTCLDY    44  23  43 S6        30.02F
BROOMFIELD     PTCLDY    54  21  28 NW16      30.01S
FORT COLLINS   PTCLDY    46  23  39 N7        30.00F
LONGMONT       PTCLDY    46  21  38 SW6       30.02S
$$

COZ041-046-047-076>085-087-088-280700-
...PIKES PEAK/PALMER DIVIDE AND SOUTHERN FOOTHILLS...

CITY           SKY/WX    TMP DP  RH WIND       PRES   REMARKS
COLO. SPRINGS  CLEAR     51  20  29 NW10      30.04S
A. F. ACADEMY  CLEAR     49  16  26 N10       30.05S
ELLICOTT       CLEAR    N/A N/A N/A N13       30.03R
FALCON         CLEAR     51  17  26 NW18      30.07F
FORT CARSON    PTCLDY    43  23  45 N3        30.02S
LIMON          CLEAR     29  24  82 NW8       29.99S WCI  21
MONUMENT HILL  CLEAR     41  19  42 SW7       30.08S
TRINIDAD       CLEAR     44  27  51 W12       30.07R
$$

COZ042>045-048>051-090-091-280700-
...NORTHEAST COLORADO...

CITY           SKY/WX    TMP DP  RH WIND       PRES   REMARKS
GREELEY ARPT   MOCLDY    34  21  60 CALM      29.98S
AKRON          CLEAR     37  28  70 W13       29.94R
BURLINGTON     CLEAR     38  29  70 SW9       29.93F
WRAY           PTCLDY    39  31  71 W5        29.92S
STERLING       CLEAR     37  32  81 CALM      29.95R
HOLYOKE        PTCLDY    36  30  80 CALM      29.91S
FORT MORGAN    CLEAR     46  26  45 N16       29.96S
$$

COZ086-089-092>099-280700-
...SOUTHEAST COLORADO...

CITY           SKY/WX    TMP DP  RH WIND       PRES   REMARKS
PUEBLO         PTCLDY    53  22  29 NW14      29.99S
LA JUNTA       CLEAR     45  31  58 SW9       29.96S
LAMAR          CLEAR     33  29  85 SW7       29.93F WCI  27
SPRINGFIELD      N/A     43  32  65 W9        29.99S
$$


USA.gov is the U.S. government's official web portal to all federal, state and local government web resources and services.